CST,Max TemperatureF,Mean TemperatureF,Min TemperatureF,Max Dew PointF,MeanDew PointF,Min DewpointF,Max Humidity, Mean Humidity, Min Humidity, Max Sea Level PressureIn, Mean Sea Level PressureIn, Min Sea Level PressureIn, Max VisibilityMiles, Mean VisibilityMiles, Min VisibilityMiles, Max Wind SpeedMPH, Mean Wind SpeedMPH, Max Gust SpeedMPH,PrecipitationIn, CloudCover, Events, WindDirDegrees
2012-12-1,86,78,69,75,72,67,89,76,63,29.98,29.93,29.88,9,7,6,14,6,,0.00,5,,332
2012-12-2,82,76,71,75,72,70,90,84,74,29.99,29.93,29.89,9,7,5,12,7,,0.02,5,Rain,326
2012-12-3,84,77,70,75,73,70,94,77,66,29.98,29.92,29.86,9,7,6,12,6,,0.00,5,,356
2012-12-4,86,77,68,75,72,68,89,75,53,29.98,29.92,29.87,9,7,6,15,7,,0.00,4,,359
2012-12-5,84,78,72,74,73,72,94,76,65,29.99,29.90,29.85,9,7,6,13,4,,0.00,6,,29
2012-12-6,83,76,70,73,72,69,94,76,63,29.92,29.86,29.80,9,7,6,16,9,,0.00,6,,325
2012-12-7,85,78,72,73,72,70,89,76,56,29.91,29.84,29.76,9,7,6,10,7,,0.00,5,,331
2012-12-8,85,78,71,74,73,71,100,80,63,29.91,29.85,29.79,9,7,5,12,7,,0.04,4,Rain,326
2012-12-9,85,76,68,73,71,68,95,76,49,29.93,29.87,29.81,9,8,6,6,3,,0.00,6,,313
2012-12-10,84,78,73,77,75,73,100,81,71,29.88,29.81,29.75,9,7,6,13,5,,0.00,4,Rain,34
2012-12-11,87,80,73,78,76,73,94,81,71,29.88,29.83,29.78,9,7,6,7,5,,0.00,6,,119
2012-12-12,85,79,73,75,72,70,94,80,64,29.96,29.89,29.84,9,7,6,13,4,,0.08,6,Rain,200
2012-12-13,86,79,72,75,73,71,94,83,64,29.99,29.92,29.86,9,7,6,34,6,,0.00,5,Rain,230
2012-12-14,80,74,68,75,71,67,94,88,78,29.99,29.92,29.86,9,6,2,7,3,,0.16,5,Rain,284
2012-12-15,83,77,71,73,72,71,100,80,62,29.95,29.89,29.84,9,7,6,10,6,,0.00,6,,325
2012-12-16,84,76,69,73,72,69,94,77,60,29.93,29.87,29.81,9,7,6,13,4,,0.00,2,,37
2012-12-17,86,78,69,75,73,68,94,72,58,29.92,29.86,29.81,9,7,6,9,5,,0.00,1,,18
2012-12-18,85,78,71,73,72,68,94,75,62,29.93,29.87,29.81,9,7,6,12,5,,0.00,4,,112
2012-12-19,85,76,68,75,72,66,94,75,65,29.92,29.86,29.82,9,7,6,8,4,,0.00,2,,46
2012-12-20,85,77,69,73,71,68,94,78,55,29.91,29.87,29.83,9,7,6,10,5,,0.01,5,Rain,333
2012-12-21,79,76,72,73,72,71,97,85,73,29.96,29.91,29.87,9,7,6,10,4,,0.02,6,Rain,328
2012-12-22,84,78,71,73,72,68,88,73,61,30.00,29.94,29.88,9,7,6,13,7,,0.00,4,,32
2012-12-23,76,72,69,73,71,69,100,92,83,29.97,29.90,29.85,8,5,2,7,6,,0.31,6,Rain,250
2012-12-24,80,75,70,75,72,69,94,88,77,29.94,29.87,29.82,9,6,5,8,3,,0.28,6,Rain,281
2012-12-25,81,76,72,74,73,72,100,89,74,29.90,29.84,29.77,9,7,5,9,5,,0.20,6,Rain,303
2012-12-26,84,78,71,76,74,70,96,78,68,29.95,29.83,29.76,9,7,6,7,5,,0.00,3,,47
2012-12-27,87,80,73,77,75,73,94,86,62,29.90,29.83,29.78,8,6,2,7,5,,0.47,7,Rain-Thunderstorm,233
2012-12-28,79,76,72,77,74,72,96,92,83,29.89,29.83,29.77,9,6,2,9,4,,0.51,6,Rain,274
2012-12-29,87,81,75,77,76,74,94,79,61,29.92,29.87,29.82,9,7,5,7,4,,0.12,5,Rain,94
2012-12-30,86,78,71,75,73,70,100,84,61,29.99,29.93,29.89,9,6,5,17,6,,0.31,6,Rain,223
2012-12-31,87,79,71,74,72,69,94,76,60,29.98,29.92,29.85,9,7,6,26,7,,0.00,5,Rain,159